Location: Ajisawe
(8.4333°N, 4.3833°E)
Time: 13:36:16
(UTC+00:00)

Courier 1B Rocket - Pass Details

Date: 23 April 2021
Orbit: 920 x 1202 km, 28.2° (Epoch: 07 May)

Event Time Altitude Azimuth Distance (km) Brightness Sun altitude
Rises 21:30:29 0° 314° (NW) 3,766 8.7 -51.3°
Enters shadow 21:33:46 10° 329° (NNW) 2,905 7.9 -52.0°
Reaches altitude 10° 21:33:57 10° 330° (NNW) 2,867 - -52.0°
Maximum altitude 21:38:57 20° 16° (NNE) 2,277 - -53.0°
Drops below altitude 10° 21:44:10 10° 61° (ENE) 3,015 - -54.1°
Sets 21:47:56 0° 77° (ENE) 4,020 - -54.8°
